Weather History for Marshfield, MA

Change the Weather History Date:

Saturday, February 15, 2014

  Actual Average (KPYM) Record (KPYM)
Temperature  
Mean Temperature 32 °F -  
Max Temperature 35 °F 40 °F 65 °F (1949)
Min Temperature 28 °F 16 °F -4 °F (1979)
Degree Days  
Heating Degree Days 34    
Moisture  
Dew Point 29 °F    
Average Humidity 87    
Maximum Humidity 100    
Minimum Humidity 60    
Precipitation  
Precipitation 0.37 in - - ()
Sea Level Pressure  
Sea Level Pressure 29.71 in    
Wind  
Wind Speed 4 mph (North)    
Max Wind Speed 13 mph    
Max Gust Speed 25 mph    
Visibility 6 miles    
Events Snow    
Averages and records for this station are not official NWS values.
T = Trace of Precipitation, MM = Missing Value Source: NWS Daily Summary

Daily Weather History Graph

Daily Weather History Graph

Search for Another Location

Airport:

Trip Planner

Search our weather history database for the weather conditions in past years. The results will help you decide how hot, cold, wet, or windy it might be!

Date:

Astronomy

Feb. 15, 2014 Rise Set
Actual Time 6:38 AM EST 5:15 PM EST
Civil Twilight 6:10 AM EST 5:44 PM EST
Nautical Twilight 5:37 AM EST 6:16 PM EST
Astronomical Twilight 5:04 AM EST 6:49 PM EST
Moon 6:14 PM EST (2/15) 6:34 AM EST (2/15)
Length of Visible Light 11h 34m
Length of Day
10h 36m
Full, 100% of the Moon is Illuminated
Feb 15
Full
Feb 22
Last Quarter
Mar 1
New
Mar 8
First Quarter
Mar 16
Full

Hourly Weather History & Observations

Time (EST) Temp. Windchill Dew Point Humidity Pressure Visibility Wind Dir Wind Speed Gust Speed Precip Events Conditions
12:15 AM 33.8 °F 28.6 °F 23.0 °F 65% 29.76 in 10.0 mi WSW 5.8 mph - N/A   Clear
12:35 AM 33.8 °F 29.6 °F 23.0 °F 65% 29.77 in 10.0 mi WSW 4.6 mph - N/A   Clear
12:55 AM 32.0 °F 27.5 °F 23.0 °F 69% 29.78 in 10.0 mi WSW 4.6 mph - N/A   Clear
1:15 AM 32.0 °F 28.7 °F 24.8 °F 75% 29.78 in 10.0 mi SW 3.5 mph - N/A   Clear
1:35 AM 32.0 °F 28.7 °F 24.8 °F 75% 29.79 in 10.0 mi WSW 3.5 mph - N/A   Clear
1:55 AM 32.0 °F 28.7 °F 24.8 °F 75% 29.80 in 10.0 mi SW 3.5 mph - N/A   Clear
2:15 AM 32.0 °F 28.7 °F 24.8 °F 75% 29.81 in 10.0 mi SW 3.5 mph - N/A   Clear
2:35 AM 32.0 °F 27.5 °F 26.6 °F 80% 29.82 in 10.0 mi SW 4.6 mph - N/A   Clear
2:55 AM 32.0 °F 26.4 °F 26.6 °F 80% 29.82 in 10.0 mi SW 5.8 mph - N/A   Clear
3:15 AM 32.0 °F - 26.6 °F 80% 29.82 in 10.0 mi Calm Calm - N/A   Clear
3:35 AM 32.0 °F - 26.6 °F 80% 29.81 in 10.0 mi Calm Calm - N/A   Clear
3:55 AM 32.0 °F - 26.6 °F 80% 29.82 in 10.0 mi Calm Calm - N/A   Clear
4:15 AM 30.2 °F - 26.6 °F 86% 29.82 in 10.0 mi Calm Calm - N/A   Clear
4:35 AM 30.2 °F 26.7 °F 26.6 °F 86% 29.83 in 10.0 mi SSW 3.5 mph - N/A   Clear
4:55 AM 30.2 °F - 26.6 °F 86% 29.84 in 10.0 mi Calm Calm - N/A   Clear
5:15 AM 30.2 °F - 26.6 °F 86% 29.83 in 10.0 mi Calm Calm - N/A   Clear
5:35 AM 30.2 °F - 26.6 °F 86% 29.84 in 10.0 mi Calm Calm - N/A   Clear
5:55 AM 30.2 °F - 26.6 °F 86% 29.85 in 10.0 mi Calm Calm - N/A   Clear
6:15 AM 28.4 °F - 26.6 °F 93% 29.85 in 9.0 mi Calm Calm - N/A   Clear
6:35 AM 28.4 °F - 26.6 °F 93% 29.85 in 10.0 mi Calm Calm - N/A   Clear
6:55 AM 28.4 °F - 26.6 °F 93% 29.84 in 10.0 mi Calm Calm - N/A   Clear
7:15 AM 28.4 °F - 26.6 °F 93% 29.84 in 10.0 mi Calm Calm - N/A   Scattered Clouds
7:35 AM 30.2 °F - 28.4 °F 93% 29.85 in 10.0 mi Calm Calm - N/A   Clear
7:55 AM 32.0 °F - 28.4 °F 87% 29.86 in 10.0 mi Calm Calm - N/A   Clear
8:15 AM 32.0 °F - 28.4 °F 87% 29.86 in 10.0 mi Calm Calm - N/A   Clear
8:35 AM 32.0 °F - 28.4 °F 87% 29.87 in 10.0 mi Calm Calm - N/A   Clear
8:55 AM 33.8 °F - 26.6 °F 75% 29.86 in 10.0 mi Calm Calm - N/A   Clear
9:15 AM 33.8 °F - 26.6 °F 75% 29.86 in 10.0 mi Calm Calm - N/A   Clear
9:35 AM 35.6 °F 32.8 °F 24.8 °F 65% 29.86 in 10.0 mi ESE 3.5 mph - N/A   Partly Cloudy
9:55 AM 35.6 °F 30.7 °F 23.0 °F 60% 29.86 in 10.0 mi East 5.8 mph - N/A   Mostly Cloudy
10:15 AM 35.6 °F 30.7 °F 24.8 °F 65% 29.86 in 10.0 mi ESE 5.8 mph - N/A   Partly Cloudy
10:35 AM 35.6 °F 32.8 °F 24.8 °F 65% 29.87 in 10.0 mi ESE 3.5 mph - N/A   Clear
10:55 AM 35.6 °F 30.7 °F 26.6 °F 70% 29.87 in 10.0 mi ESE 5.8 mph - N/A   Partly Cloudy
11:15 AM 35.6 °F 30.7 °F 26.6 °F 70% 29.85 in 10.0 mi ENE 5.8 mph - N/A   Partly Cloudy
11:35 AM 35.6 °F 32.8 °F 28.4 °F 75% 29.82 in 10.0 mi NE 3.5 mph - N/A   Partly Cloudy
11:55 AM 35.6 °F 31.7 °F 28.4 °F 75% 29.80 in 10.0 mi North 4.6 mph - N/A   Clear
12:15 PM 35.6 °F 31.7 °F 28.4 °F 75% 29.80 in 10.0 mi NNE 4.6 mph - N/A   Clear
12:35 PM 35.6 °F 32.8 °F 28.4 °F 75% 29.80 in 10.0 mi NE 3.5 mph - N/A   Clear
12:55 PM 35.6 °F 31.7 °F 28.4 °F 75% 29.79 in 10.0 mi East 4.6 mph - N/A   Partly Cloudy
1:15 PM 35.6 °F 31.7 °F 30.2 °F 81% 29.78 in 3.0 mi ENE 4.6 mph - N/A Snow Light Snow
1:35 PM 33.8 °F 27.7 °F 30.2 °F 87% 29.77 in 2.0 mi NE 6.9 mph - N/A Snow Light Snow
1:55 PM 33.8 °F 27.7 °F 32.0 °F 93% 29.75 in 1.2 mi NE 6.9 mph - N/A Snow Light Snow
2:15 PM 33.8 °F 27.7 °F 32.0 °F 93% 29.73 in 0.8 mi NE 6.9 mph - N/A Snow Light Snow
2:35 PM 33.8 °F 27.7 °F 32.0 °F 93% 29.71 in 0.5 mi NNE 6.9 mph - 0.01 in   Overcast
2:55 PM 33.8 °F 28.6 °F 32.0 °F 93% 29.71 in 0.8 mi NNE 5.8 mph - 0.01 in   Overcast
3:15 PM 33.8 °F 27.7 °F 32.0 °F 93% 29.70 in 0.5 mi North 6.9 mph - N/A   Overcast
3:35 PM 33.8 °F 27.7 °F 32.0 °F 93% 29.68 in 0.2 mi NNE 6.9 mph - 0.02 in   Overcast
3:55 PM 33.8 °F 27.0 °F 32.0 °F 93% 29.66 in 0.2 mi NNE 8.1 mph - 0.04 in   Overcast
4:15 PM 33.8 °F 26.4 °F 32.0 °F 93% 29.64 in 0.2 mi NNE 9.2 mph - 0.01 in   Overcast
4:35 PM 33.8 °F 25.3 °F 33.8 °F 100% 29.64 in 0.2 mi NE 11.5 mph 16.1 mph 0.03 in Snow Snow
4:55 PM 33.8 °F 28.6 °F 33.8 °F 100% 29.63 in 0.5 mi NNE 5.8 mph - 0.05 in   Overcast
5:15 PM 33.8 °F 27.0 °F 33.8 °F 100% 29.61 in 0.2 mi North 8.1 mph - 0.01 in   Overcast
5:35 PM 33.8 °F 28.6 °F 33.8 °F 100% 29.61 in 0.5 mi North 5.8 mph - 0.03 in   Overcast
5:55 PM 33.8 °F 27.7 °F 33.8 °F 100% 29.59 in 0.5 mi North 6.9 mph - 0.05 in   Overcast
6:15 PM 33.8 °F 27.7 °F 33.8 °F 100% 29.58 in 0.2 mi North 6.9 mph - 0.01 in   Overcast
6:35 PM 33.8 °F 27.7 °F 33.8 °F 100% 29.56 in 0.2 mi North 6.9 mph - 0.03 in   Overcast
6:55 PM 33.8 °F 26.4 °F 33.8 °F 100% 29.53 in 0.2 mi North 9.2 mph - 0.04 in   Overcast
7:15 PM 33.8 °F 26.4 °F 33.8 °F 100% 29.52 in 0.2 mi North 9.2 mph 16.1 mph 0.03 in   Overcast
7:35 PM 33.8 °F 26.4 °F 33.8 °F 100% 29.50 in 0.2 mi North 9.2 mph - 0.06 in   Overcast
7:55 PM 33.8 °F 25.8 °F 33.8 °F 100% 29.48 in 0.2 mi North 10.4 mph 16.1 mph 0.09 in   Overcast
8:15 PM 33.8 °F 25.8 °F 33.8 °F 100% 29.47 in 0.5 mi North 10.4 mph - 0.02 in   Overcast
8:55 PM 33.8 °F 25.8 °F 33.8 °F 100% 29.45 in 0.5 mi North 10.4 mph 17.3 mph 0.06 in Snow Light Snow
9:15 PM 33.8 °F 25.8 °F 33.8 °F 100% 29.45 in 0.5 mi North 10.4 mph 19.6 mph 0.01 in   Overcast
9:35 PM 33.8 °F 25.3 °F 33.8 °F 100% 29.42 in 0.2 mi NNW 11.5 mph 19.6 mph 0.02 in   Overcast
9:55 PM 33.8 °F 25.8 °F 32.0 °F 93% 29.40 in 0.2 mi NW 10.4 mph 25.3 mph 0.02 in   Overcast
10:15 PM 32.0 °F 23.0 °F 32.0 °F 100% 29.41 in 0.2 mi NW 11.5 mph 20.7 mph N/A   Overcast
10:35 PM 32.0 °F 24.2 °F 32.0 °F 100% 29.42 in 0.2 mi NW 9.2 mph 21.9 mph N/A   Overcast
10:55 PM 32.0 °F 22.5 °F 32.0 °F 100% 29.42 in 0.5 mi NW 12.7 mph 19.6 mph N/A   Overcast
11:15 PM 32.0 °F 23.0 °F 32.0 °F 100% 29.41 in 0.2 mi NW 11.5 mph 19.6 mph 0.01 in   Overcast
11:35 PM 32.0 °F 22.5 °F 32.0 °F 100% 29.41 in 0.2 mi NW 12.7 mph 21.9 mph 0.01 in   Overcast
11:55 PM 32.0 °F 23.0 °F 30.2 °F 93% 29.41 in 0.2 mi NW 11.5 mph 21.9 mph 0.01 in   Overcast